Theta_e
290 289 289 288 288 288 287 287 287 286 286 286 286 286 286 285 285 284 284 283 283 282 282 281 281 281 281 280 280 280 279 279 279 279 278 279 278 278 278 277 277 277
289 289 289 289 288 288 288 287 287 287 286 286 286 286 286 285 285 284 284 283 283 282 282 281 281 281 280 280 280 279 279 279 278 279 278 278 277 277 277 277 277 277
289 288 288 288 288 287 287 287 287 287 286 286 286 286 286 285 284 284 284 283 283 282 281 281 281 281 280 280 279 279 279 278 278 278 278 278 277 277 277 277 276 276
289 289 289 288 288 287 287 286 286 286 286 285 285 286 286 285 285 284 283 283 282 282 281 281 281 280 280 280 279 279 279 278 278 278 277 277 277 277 276 276 276 276
288 288 289 288 288 288 286 286 285 285 285 285 285 285 285 284 284 283 283 283 282 282 281 281 280 280 280 279 279 279 278 278 277 277 277 276 276 276 276 276 276 275
288 288 288 288 288 287 286 285 286 285 285 284 285 284 284 284 283 283 283 282 282 281 281 280 280 280 279 279 279 278 278 277 277 277 276 276 275 276 276 275 275 275
287 287 287 288 287 286 286 285 285 285 285 285 284 284 284 283 283 283 283 282 282 281 280 280 280 279 279 279 278 278 277 277 276 276 276 275 275 275 275 275 275 274
287 287 287 287 286 286 286 285 285 285 285 284 284 284 284 283 283 283 282 282 281 281 280 280 279 279 279 278 278 277 277 277 276 276 275 275 275 274 274 275 275 274
287 286 286 285 286 286 285 285 285 285 285 284 284 283 283 283 283 282 282 281 281 280 280 279 279 279 278 278 278 277 276 276 276 276 275 274 274 274 274 274 274 274
286 286 285 285 285 286 285 285 286 285 284 284 284 283 282 283 283 282 281 281 280 280 279 279 279 278 278 278 277 277 276 276 275 275 275 274 274 274 274 274 273 273
286 286 285 285 285 286 285 285 285 285 284 283 283 282 282 282 282 282 281 281 280 280 279 279 278 278 277 277 277 277 276 276 275 275 275 274 274 274 275 273 273 273
285 285 285 285 285 285 285 285 285 284 283 283 283 282 282 282 281 281 281 280 280 280 279 279 278 278 277 277 277 276 276 275 275 275 274 274 274 273 274 273 273 272
285 285 285 285 285 285 285 285 284 284 283 282 282 282 281 281 281 281 281 280 280 280 279 278 278 277 277 276 276 275 275 275 274 274 274 273 273 273 273 272 272 272
286 286 285 285 285 285 284 284 284 283 283 283 282 282 281 281 281 280 280 280 280 279 279 278 278 277 276 276 275 275 274 274 274 273 273 272 272 272 272 271 271 271
285 285 285 285 285 284 284 284 284 284 283 283 282 282 282 281 281 281 280 279 279 279 278 278 277 277 276 276 275 274 274 273 273 272 272 271 271 271 271 271 270 270
285 285 285 284 284 284 284 284 283 283 283 282 282 282 281 281 280 280 280 279 279 278 278 277 277 277 278 280 279 274 273 273 272 272 271 271 270 270 270 270 270 270
284 284 284 283 284 284 284 284 284 283 282 282 281 281 281 280 280 279 279 279 278 277 277 276 276 276 280 282 281 280 275 273 272 271 271 270 270 269 269 269 270 270
284 284 284 284 284 284 284 284 283 282 281 281 280 280 280 280 279 279 279 278 278 277 276 276 276 279 281 282 282 281 278 273 272 271 270 270 270 270 269 270 270 270
283 283 283 283 283 283 283 283 283 282 281 280 280 280 280 279 279 279 278 278 277 276 276 276 275 280 282 283 283 282 280 275 271 271 270 270 270 270 270 270 271 271
282 283 283 283 283 283 282 282 282 282 281 281 280 279 279 278 277 277 277 277 277 276 276 275 275 279 282 283 283 282 281 277 271 271 271 270 271 271 271 272 273 273
283 283 283 283 282 282 282 281 281 281 280 280 279 278 278 277 276 276 276 276 275 275 275 274 273 280 283 283 283 283 281 277 270 271 271 271 271 272 273 274 274 274
282 282 282 281 281 280 280 281 280 280 279 278 277 277 276 276 275 275 275 274 275 274 274 273 273 280 283 283 284 283 282 273 271 271 271 271 272 273 274 275 275 275
281 282 281 280 279 279 279 279 279 278 278 276 275 275 275 275 275 275 275 274 274 274 273 272 272 279 283 284 284 283 281 272 271 271 272 272 273 274 275 275 275 275
279 279 280 279 278 278 278 279 278 276 276 275 275 274 274 274 274 274 274 274 273 272 273 272 271 277 283 284 283 284 279 271 271 272 272 273 273 274 275 275 275 276
276 276 277 276 276 277 277 276 275 275 274 273 273 274 273 273 272 272 271 271 272 272 274 273 272 275 282 284 284 284 278 272 272 272 272 272 273 273 274 274 274 276
273 274 276 276 276 275 274 275 273 272 272 272 272 273 272 272 272 272 271 271 272 272 273 273 272 273 279 284 284 284 281 274 273 273 272 272 273 272 272 272 273 273
Wind_Speed
13 12 14 13 13 11 12 13 12 13 13 12 13 13 13 12 10 14 14 12 13 13 12 12 11 11 10 10 10 9 9 10 8 8 9 9 7 8 8 8 7 7
15 14 11 10 10 10 12 13 13 13 14 13 13 11 10 10 12 13 14 14 13 14 13 12 12 12 12 11 11 11 9 8 10 6 8 9 7 7 8 8 7 6
13 13 14 16 16 16 14 11 11 12 12 13 10 10 11 10 12 12 13 13 13 13 13 13 12 12 12 11 11 10 10 10 10 7 8 9 7 8 7 7 6 7
16 17 16 15 13 12 11 11 11 10 10 9 14 11 9 10 11 13 12 13 12 13 12 12 14 12 12 12 11 10 10 9 8 8 8 6 6 7 7 6 6 5
17 15 14 13 12 10 9 12 13 13 13 13 8 9 11 11 11 12 12 13 12 12 12 13 12 13 12 12 12 11 10 9 8 9 9 8 7 7 6 7 7 7
12 13 14 14 13 12 12 13 14 12 12 11 13 10 10 11 12 13 13 13 12 12 12 12 13 13 13 13 12 11 10 10 9 10 10 9 8 7 7 7 8 8
16 15 16 14 12 12 13 13 12 12 13 13 9 12 13 13 13 14 14 13 13 13 13 13 13 13 12 12 12 11 10 10 10 11 11 9 8 9 7 8 8 8
15 13 13 11 13 13 14 13 13 13 13 11 14 13 13 14 14 13 13 14 14 13 13 12 12 12 12 12 13 13 12 9 11 12 11 10 10 10 10 8 8 9
14 13 13 14 15 14 15 15 15 14 12 14 14 12 12 13 14 14 14 14 13 14 14 13 14 13 12 12 13 14 14 12 12 13 13 13 12 12 12 9 9 9
14 13 13 15 16 15 17 17 15 13 12 14 13 12 14 13 14 14 14 15 15 14 15 14 14 13 13 12 13 14 13 13 13 13 12 12 13 12 12 11 11 10
14 13 15 16 17 15 18 17 16 14 12 14 12 13 14 13 13 13 14 15 16 17 16 15 15 14 14 13 12 11 12 12 12 12 12 12 11 11 11 12 11 11
14 13 15 16 17 17 18 17 15 13 13 12 14 14 12 13 14 13 15 17 16 15 16 15 14 14 14 14 13 11 11 10 10 11 11 10 10 10 10 10 10 9
15 15 16 16 17 16 13 11 12 12 12 13 12 14 14 13 13 15 14 15 16 15 15 16 15 14 14 14 13 12 12 12 11 10 9 9 8 9 9 9 8 8
14 15 16 16 14 11 11 11 11 11 12 12 11 13 14 16 17 17 15 14 14 15 14 13 14 14 14 14 14 14 13 13 12 11 10 9 8 8 8 9 9 9
13 13 13 13 12 11 12 13 13 14 13 12 13 14 13 14 14 14 14 14 14 15 15 14 15 15 14 15 15 14 13 13 13 12 11 11 9 9 8 8 8 8
12 11 10 10 10 13 14 14 13 13 13 14 15 15 14 13 13 13 14 15 15 14 13 13 13 12 14 22 18 15 14 12 11 11 11 11 11 10 9 9 9 8
10 11 9 11 12 11 10 11 12 12 13 14 13 12 13 12 13 15 16 15 16 16 16 14 12 11 21 24 24 22 15 13 13 12 11 11 11 12 12 11 9 8
10 9 10 12 10 12 12 12 11 12 12 13 12 13 13 12 15 16 14 14 13 14 14 14 13 15 24 25 25 25 20 13 11 11 11 11 11 11 9 9 10 9
6 7 9 10 11 11 10 10 12 12 13 13 15 15 12 14 15 13 15 14 14 16 15 14 13 19 25 26 25 26 25 17 11 11 12 11 11 11 11 10 9 9
5 6 8 9 8 8 9 11 12 15 14 12 10 10 13 13 13 15 14 14 15 15 15 13 13 19 26 26 25 26 26 19 11 12 11 11 12 11 10 11 11 10
6 6 9 7 5 6 8 10 12 10 10 11 11 13 14 15 15 15 14 13 12 12 11 12 11 22 25 26 26 26 26 18 11 10 10 10 10 10 10 10 11 10
6 7 7 5 4 5 8 10 10 10 11 9 9 8 8 7 8 9 12 13 12 12 12 12 11 24 25 26 26 26 27 14 12 12 11 10 10 11 10 10 10 10
6 7 7 6 5 7 9 9 9 9 8 6 8 8 9 10 10 10 10 11 12 12 13 11 10 20 26 26 27 29 20 11 11 10 10 11 11 11 11 11 10 11
6 6 7 6 5 8 9 8 6 4 6 7 11 10 10 10 8 8 8 9 12 13 13 12 11 18 26 26 28 30 19 15 13 12 11 11 11 10 10 10 11 18
6 5 6 6 7 8 7 7 8 8 6 6 7 8 9 8 8 9 8 8 9 11 13 13 11 15 25 26 28 28 18 12 12 12 13 12 11 11 9 8 10 15
4 5 6 6 7 5 5 6 4 4 6 8 7 7 7 8 8 9 10 9 10 11 12 12 13 13 18 27 27 29 25 16 12 13 14 14 12 11 10 9 8 10
Wind_Direction
198 197 201 198 203 201 193 193 194 194 196 194 197 199 197 201 183 188 190 184 186 185 184 181 178 177 178 179 182 181 186 189 186 181 183 177 180 173 176 174 175 173
205 202 202 202 204 202 203 198 195 195 197 197 201 193 196 186 194 189 190 190 187 189 182 180 180 180 179 180 182 183 186 187 191 180 178 180 177 173 177 175 172 163
202 202 204 204 205 203 200 195 194 200 199 201 194 195 195 187 186 193 195 192 189 187 184 182 180 182 181 182 181 184 186 186 190 180 177 182 169 176 176 168 168 177
205 205 206 211 210 206 198 192 198 199 199 193 202 196 184 187 187 190 194 193 192 190 186 182 184 181 182 182 178 187 187 190 187 170 174 167 176 171 172 168 164 166
205 207 209 210 209 203 193 199 200 200 198 202 186 185 188 184 187 189 192 195 194 192 187 187 183 183 180 180 182 183 183 184 176 173 175 177 176 171 171 166 169 175
211 208 208 208 204 197 198 203 206 200 198 193 198 185 188 186 188 190 191 192 195 193 191 190 187 185 182 181 180 186 181 180 179 173 177 178 173 171 167 172 171 178
209 204 209 205 202 200 202 204 203 200 199 200 175 191 187 188 189 191 189 191 191 192 192 192 191 187 185 180 181 183 183 182 173 179 178 176 169 172 173 172 178 181
210 207 208 201 203 202 205 204 203 202 200 186 192 195 184 189 190 188 188 187 189 192 193 193 193 192 186 182 184 183 183 180 180 180 179 175 173 178 177 178 176 176
214 210 196 197 202 204 206 205 205 203 193 194 196 190 188 188 188 186 186 186 189 190 191 193 193 191 189 188 189 185 183 183 183 182 181 177 180 183 179 173 172 179
216 213 202 200 201 205 207 208 205 202 192 198 195 186 187 191 186 184 183 186 188 190 192 192 190 191 190 193 191 187 185 185 183 186 186 184 182 178 176 175 177 173
222 212 211 207 204 205 210 208 205 200 193 196 189 193 192 185 188 182 183 184 190 192 190 190 192 188 188 190 191 190 189 185 186 187 188 186 184 180 177 175 175 180
220 213 217 215 209 208 210 206 204 200 194 194 191 193 190 192 186 184 187 190 192 191 189 188 186 188 189 188 186 183 185 188 189 190 188 183 180 179 176 176 176 173
215 213 213 217 218 212 207 202 203 200 194 196 193 194 190 188 190 190 193 190 191 187 189 187 185 184 185 184 184 183 183 185 185 187 185 180 181 176 172 172 173 171
220 216 214 215 217 210 200 199 196 193 196 193 189 194 192 192 191 192 193 190 189 187 189 184 184 184 184 183 184 183 181 183 183 181 178 177 172 171 169 171 173 174
224 221 219 214 207 201 198 198 197 197 193 188 191 198 197 195 192 189 185 191 190 189 184 183 186 188 185 183 180 183 183 180 178 176 175 173 170 169 169 169 171 177
225 222 217 210 204 205 203 198 195 191 190 194 197 197 194 191 189 189 189 190 187 188 186 186 190 188 187 181 179 176 177 176 171 174 174 173 170 168 170 174 175 178
218 216 204 204 209 207 205 198 197 194 196 197 195 192 192 188 184 189 194 190 188 186 187 191 190 187 183 184 182 176 171 173 172 172 172 171 175 173 174 174 177 178
217 210 204 209 199 205 200 197 193 193 197 195 191 190 192 187 192 195 188 187 188 188 190 190 190 184 184 184 181 177 171 170 171 169 170 173 174 176 173 171 173 174
227 215 216 211 208 205 198 195 194 195 195 190 194 193 183 191 196 186 192 189 185 188 191 189 191 184 184 183 180 177 173 167 172 169 170 173 174 174 173 172 170 172
248 236 231 226 213 202 194 195 195 200 199 194 187 179 189 194 191 192 188 189 190 189 189 187 185 184 183 182 180 177 173 166 168 169 171 172 172 173 172 171 174 172
262 248 246 242 219 206 201 204 203 201 192 191 187 190 191 192 191 192 193 189 187 184 183 185 184 183 183 182 180 176 171 160 164 167 168 170 169 171 173 172 169 171
274 266 261 253 222 209 208 210 205 199 196 189 188 194 194 187 195 192 188 186 184 180 182 185 182 186 184 183 179 175 169 160 165 168 168 168 167 172 172 169 171 172
286 270 262 246 221 214 215 211 202 201 195 174 183 189 187 192 194 190 187 183 182 184 183 182 178 188 186 183 180 176 166 152 164 164 168 170 173 172 170 172 175 177
282 267 261 245 224 222 217 214 206 194 189 176 186 185 190 194 182 183 185 184 184 185 183 177 182 190 189 186 183 181 164 163 168 167 168 170 171 173 172 177 180 181
276 263 250 237 229 227 216 208 198 193 180 169 183 183 189 175 175 178 178 179 185 184 183 182 179 191 192 190 184 181 164 162 166 168 168 171 170 171 174 172 182 187
270 262 254 240 236 226 209 208 186 163 170 178 185 181 176 176 180 179 178 184 180 184 188 185 181 188 195 190 187 186 171 166 170 173 175 171 171 168 163 176 175 183